Location: Kitt Peak
(31.9639°N, 111.5992°W)
Time: 12:33:31
(UTC-07:00)

N. Korean satellite - Visible Passes

Search period start: 21 September 2017 00:00
Search period end: 01 October 2017 00:00
Orbit: 461 x 515 km, 97.2° (Epoch: 20 September)

Date Brightness Start Highest point End Pass type
(mag) Time Alt. Az. Time Alt. Az. Time Alt. Az.
21 Sep 8.4 19:04:39 10° SSW 19:08:08 37° W 19:11:38 10° NNW visible
22 Sep 6.8 18:41:10 10° S 18:44:55 82° WSW 18:48:40 10° NNW visible
24 Sep 9.8 19:29:33 10° SW 19:32:06 17° W 19:34:38 10° NW visible
25 Sep 8.5 19:05:22 10° SSW 19:08:48 35° W 19:12:16 10° NNW visible
26 Sep 6.8 18:41:51 10° S 18:45:35 80° W 18:49:18 10° NNW visible
28 Sep 9.8 19:30:17 10° SW 19:32:44 17° W 19:35:11 10° NW visible
29 Sep 8.5 19:06:02 10° SSW 19:09:26 34° W 19:12:49 10° NNW visible
30 Sep 6.8 18:42:30 10° S 18:46:12 77° W 18:49:53 10° NNW visible
